Location: Chapel Hill
(35.9134°N, 79.0560°W)
Time: 04:32:42
(UTC-04:00)

ACS3 Solar Sail - Pass Details

Date: 26 June 2024
Orbit: 993 x 1022 km, 97.4° (Epoch: 23 July)

Event Time Altitude Azimuth Distance (km) Brightness Sun altitude
Exits shadow 21:20:10 - 108° (ESE) 2,938 6.7 -8.2°
Reaches altitude 10° 21:20:53 10° 103° (ESE) 2,760 6.6 -8.3°
Maximum altitude 21:24:44 17° 64° (ENE) 2,261 6.5 -8.9°
Drops below altitude 10° 21:28:36 10° 25° (NNE) 2,763 7.3 -9.5°
Sets 21:31:56 0° 7° (N) 3,715 8.3 -10.1°
